• Em Portugal
  • Lista de países
  • Para 7 dias
  • Temperatura da água
  • Mapas de satélite
  • Mapa do tempo
  • Widgets de tempo
  • user-avatar
    Iniciar Sessão

    Previsão horária em Myitkyina

    Hoje, 23 Outubro, Segunda-feira

    Tempo Temperatura Precipitação Vento Pressão Humidade
    00:00 +21°C° 0 mm 0 m/s 739 mmHg 95%
    01:00 +21°C° 0,8 mm 0 m/s 739 mmHg 95%
    02:00 +21°C° 0,8 mm 0 m/s 739 mmHg 95%
    03:00 +21°C° 0,8 mm 0 m/s 739 mmHg 95%
    04:00 +21°C° 0,5 mm 0 m/s 740 mmHg 95%
    05:00 +21°C° 0,5 mm 0 m/s 740 mmHg 96%
    06:00 +21°C° 0 mm 0 m/s 740 mmHg 95%
    07:00 +23°C° 0,1 mm 0 m/s 741 mmHg 89%
    08:00 +25°C° 0,1 mm 0 m/s 741 mmHg 83%
    09:00 +26°C° 0,1 mm 0 m/s 741 mmHg 77%
    10:00 +28°C° 0,5 mm 0 m/s 741 mmHg 71%
    11:00 +29°C° 0,5 mm 0 m/s 740 mmHg 65%
    12:00 +31°C° 0,5 mm 0 m/s 739 mmHg 60%
    13:00 +31°C° 0,3 mm 0 m/s 739 mmHg 59%
    14:00 +30°C° 0,3 mm 0 m/s 738 mmHg 58%
    15:00 +30°C° 0,3 mm 0 m/s 738 mmHg 57%
    16:00 +28°C° 0,1 mm 0 m/s 738 mmHg 65%
    17:00 +26°C° 0,1 mm 0 m/s 738 mmHg 73%
    18:00 +24°C° 0,1 mm 0 m/s 739 mmHg 81%
    19:00 +24°C° 0,2 mm 0 m/s 739 mmHg 83%
    20:00 +23°C° 0,2 mm 0 m/s 740 mmHg 84%
    21:00 +23°C° 0,2 mm 0 m/s 741 mmHg 86%
    22:00 +22°C° 0,3 mm 0 m/s 741 mmHg 87%
    23:00 +22°C° 0,3 mm 0 m/s 741 mmHg 88%

    Amanhã, 24 Outubro, Terça-feira

    Tempo Temperatura Precipitação Vento Pressão Humidade
    00:00 +22°C° 0,3 mm 0 m/s 741 mmHg 89%
    01:00 +22°C° 0,1 mm 0 m/s 741 mmHg 89%
    02:00 +21°C° 0,1 mm 0 m/s 741 mmHg 89%
    03:00 +21°C° 0,1 mm 0 m/s 741 mmHg 90%
    04:00 +21°C° 0,1 mm 0 m/s 741 mmHg 90%
    05:00 +21°C° 0,1 mm 0 m/s 742 mmHg 90%
    06:00 +21°C° 0,1 mm 0 m/s 742 mmHg 90%
    07:00 +23°C° 0,1 mm 0 m/s 742 mmHg 82%
    08:00 +25°C° 0,1 mm 0 m/s 743 mmHg 74%
    09:00 +28°C° 0,1 mm 0 m/s 743 mmHg 66%
    10:00 +31°C° 0,4 mm 1 m/s 742 mmHg 63%
    11:00 +32°C° 0,4 mm 1 m/s 742 mmHg 60%
    12:00 +33°C° 0,4 mm 1 m/s 741 mmHg 57%
    13:00 +33°C° 0,4 mm 1 m/s 741 mmHg 59%
    14:00 +32°C° 0,4 mm 1 m/s 740 mmHg 61%
    15:00 +32°C° 0,4 mm 1 m/s 739 mmHg 63%
    16:00 +30°C° 0,8 mm 1 m/s 740 mmHg 70%
    17:00 +26°C° 0,8 mm 0 m/s 740 mmHg 76%
    18:00 +24°C° 0,8 mm 0 m/s 741 mmHg 83%
    19:00 +23°C° 0,1 mm 0 m/s 741 mmHg 83%
    20:00 +23°C° 0,1 mm 0 m/s 742 mmHg 84%
    21:00 +22°C° 0,1 mm 0 m/s 743 mmHg 85%
    22:00 +22°C° 0 mm 0 m/s 743 mmHg 86%
    23:00 +22°C° 0 mm 0 m/s 743 mmHg 86%

    Depois de amanhã, 25 Outubro, Quarta-feira

    Tempo Temperatura Precipitação Vento Pressão Humidade
    00:00 +21°C° 0 mm 0 m/s 743 mmHg 87%
    01:00 +21°C° 0,1 mm 0 m/s 743 mmHg 87%
    02:00 +21°C° 0,1 mm 0 m/s 743 mmHg 88%
    03:00 +21°C° 0,1 mm 0 m/s 742 mmHg 88%
    04:00 +20°C° 0,2 mm 0 m/s 743 mmHg 88%
    05:00 +20°C° 0,2 mm 0 m/s 743 mmHg 88%
    06:00 +22°C° 0,2 mm 1 m/s 744 mmHg 88%
    07:00 +25°C° 0,1 mm 1 m/s 744 mmHg 79%
    08:00 +27°C° 0,1 mm 1 m/s 744 mmHg 69%
    09:00 +30°C° 0,1 mm 1 m/s 745 mmHg 60%
    10:00 +29°C° 0,1 mm 0 m/s 744 mmHg 56%
    11:00 +30°C° 0,1 mm 0 m/s 743 mmHg 52%
    12:00 +32°C° 0,1 mm 0 m/s 743 mmHg 48%
    13:00 +31°C° 0,1 mm 0 m/s 742 mmHg 49%
    14:00 +31°C° 0,1 mm 0 m/s 741 mmHg 50%
    15:00 +32°C° 0,1 mm 1 m/s 741 mmHg 51%
    16:00 +28°C° 0 mm 0 m/s 741 mmHg 59%
    17:00 +26°C° 0 mm 0 m/s 741 mmHg 68%
    18:00 +24°C° 0 mm 0 m/s 741 mmHg 76%
    19:00 +23°C° 0 mm 0 m/s 742 mmHg 77%
    20:00 +23°C° 0 mm 0 m/s 743 mmHg 79%
    21:00 +22°C° 0 mm 0 m/s 743 mmHg 81%
    22:00 +22°C° 0 mm 0 m/s 743 mmHg 81%
    23:00 +21°C° 0 mm 0 m/s 743 mmHg 82%

    26 Outubro, Quinta-feira

    Tempo Temperatura Precipitação Vento Pressão Humidade
    00:00 +21°C° 0 mm 0 m/s 743 mmHg 83%
    01:00 +21°C° 0,1 mm 0 m/s 743 mmHg 83%
    02:00 +23°C° 0,1 mm 1 m/s 743 mmHg 84%
    03:00 +22°C° 0,1 mm 1 m/s 743 mmHg 84%
    04:00 +22°C° 0 mm 1 m/s 743 mmHg 84%
    05:00 +22°C° 0 mm 1 m/s 743 mmHg 83%
    06:00 +22°C° 0 mm 1 m/s 744 mmHg 83%
    07:00 +25°C° 0 mm 1 m/s 744 mmHg 73%
    08:00 +25°C° 0 mm 0 m/s 744 mmHg 62%
    09:00 +28°C° 0 mm 0 m/s 745 mmHg 52%
    10:00 +29°C° 0 mm 0 m/s 744 mmHg 48%
    11:00 +31°C° 0 mm 0 m/s 743 mmHg 44%
    12:00 +32°C° 0 mm 0 m/s 742 mmHg 41%
    13:00 +32°C° 0 mm 0 m/s 741 mmHg 41%
    14:00 +31°C° 0 mm 0 m/s 741 mmHg 42%
    15:00 +31°C° 0 mm 0 m/s 740 mmHg 43%
    16:00 +28°C° 0 mm 0 m/s 740 mmHg 51%
    17:00 +26°C° 0 mm 0 m/s 741 mmHg 60%
    18:00 +23°C° 0 mm 0 m/s 741 mmHg 68%
    19:00 +23°C° 0 mm 0 m/s 741 mmHg 70%
    20:00 +22°C° 0 mm 0 m/s 742 mmHg 71%
    21:00 +21°C° 0 mm 0 m/s 743 mmHg 72%
    22:00 +21°C° 0 mm 0 m/s 743 mmHg 73%
    23:00 +22°C° 0 mm 1 m/s 742 mmHg 74%

    27 Outubro, Sexta-feira

    Tempo Temperatura Precipitação Vento Pressão Humidade
    00:00 +22°C° 0 mm 1 m/s 742 mmHg 74%
    01:00 +22°C° 0 mm 1 m/s 742 mmHg 75%
    02:00 +21°C° 0 mm 1 m/s 742 mmHg 75%
    03:00 +21°C° 0 mm 1 m/s 742 mmHg 75%
    04:00 +21°C° 0 mm 1 m/s 742 mmHg 75%
    05:00 +21°C° 0 mm 1 m/s 743 mmHg 75%
    06:00 +20°C° 0 mm 1 m/s 743 mmHg 75%
    07:00 +23°C° 0 mm 1 m/s 743 mmHg 65%
    08:00 +26°C° 0 mm 1 m/s 743 mmHg 55%
    09:00 +29°C° 0 mm 1 m/s 743 mmHg 46%
    10:00 +31°C° 0 mm 1 m/s 743 mmHg 43%
    11:00 +32°C° 0 mm 1 m/s 742 mmHg 39%
    12:00 +34°C° 0 mm 1 m/s 741 mmHg 36%
    13:00 +33°C° 0 mm 1 m/s 740 mmHg 38%
    14:00 +33°C° 0 mm 1 m/s 740 mmHg 39%
    15:00 +33°C° 0 mm 1 m/s 739 mmHg 40%
    16:00 +28°C° 0 mm 0 m/s 740 mmHg 49%
    17:00 +25°C° 0 mm 0 m/s 740 mmHg 57%
    18:00 +23°C° 0 mm 0 m/s 740 mmHg 65%
    19:00 +22°C° 0 mm 0 m/s 741 mmHg 67%
    20:00 +23°C° 0 mm 1 m/s 741 mmHg 69%
    21:00 +23°C° 0 mm 1 m/s 742 mmHg 71%
    22:00 +22°C° 0 mm 1 m/s 742 mmHg 72%
    23:00 +22°C° 0 mm 1 m/s 742 mmHg 73%

    28 Outubro, Sábado

    Tempo Temperatura Precipitação Vento Pressão Humidade
    00:00 +22°C° 0 mm 1 m/s 742 mmHg 75%
    01:00 +21°C° 0 mm 1 m/s 742 mmHg 76%
    02:00 +21°C° 0 mm 1 m/s 742 mmHg 76%
    03:00 +21°C° 0 mm 1 m/s 742 mmHg 77%
    04:00 +21°C° 0 mm 1 m/s 742 mmHg 77%
    05:00 +20°C° 0 mm 1 m/s 743 mmHg 77%
    06:00 +20°C° 0 mm 1 m/s 743 mmHg 77%
    07:00 +23°C° 0 mm 1 m/s 743 mmHg 66%
    08:00 +26°C° 0 mm 1 m/s 744 mmHg 56%
    09:00 +29°C° 0 mm 1 m/s 744 mmHg 45%
    10:00 +31°C° 0 mm 1 m/s 743 mmHg 42%
    11:00 +33°C° 0 mm 1 m/s 742 mmHg 38%
    12:00 +34°C° 0 mm 1 m/s 741 mmHg 35%
    13:00 +32°C° 0 mm 0 m/s 741 mmHg 37%
    14:00 +31°C° 0 mm 0 m/s 740 mmHg 39%
    15:00 +31°C° 0 mm 0 m/s 740 mmHg 40%
    16:00 +28°C° 0 mm 0 m/s 740 mmHg 49%
    17:00 +26°C° 0 mm 0 m/s 741 mmHg 57%
    18:00 +23°C° 0 mm 0 m/s 741 mmHg 65%
    19:00 +24°C° 0 mm 1 m/s 741 mmHg 67%
    20:00 +24°C° 0 mm 1 m/s 742 mmHg 68%
    21:00 +23°C° 0 mm 1 m/s 742 mmHg 70%
    22:00 +22°C° 0 mm 1 m/s 743 mmHg 71%
    23:00 +22°C° 0 mm 1 m/s 743 mmHg 72%

    29 Outubro, Domingo

    Tempo Temperatura Precipitação Vento Pressão Humidade
    00:00 +22°C° 0 mm 1 m/s 743 mmHg 74%
    01:00 +21°C° 0 mm 1 m/s 743 mmHg 73%
    02:00 +21°C° 0 mm 1 m/s 743 mmHg 73%
    03:00 +21°C° 0 mm 1 m/s 743 mmHg 73%
    04:00 +21°C° 0 mm 1 m/s 743 mmHg 72%
    05:00 +20°C° 0 mm 1 m/s 744 mmHg 70%
    06:00 +20°C° 0 mm 1 m/s 744 mmHg 69%
    07:00 +23°C° 0 mm 1 m/s 744 mmHg 59%
    08:00 +26°C° 0 mm 1 m/s 744 mmHg 50%
    09:00 +29°C° 0 mm 1 m/s 745 mmHg 40%
    10:00 +31°C° 0 mm 1 m/s 744 mmHg 37%
    11:00 +33°C° 0 mm 1 m/s 743 mmHg 33%
    12:00 +35°C° 0 mm 1 m/s 742 mmHg 29%
    13:00 +34°C° 0 mm 1 m/s 742 mmHg 32%
    14:00 +32°C° 0 mm 0 m/s 742 mmHg 35%
    15:00 +32°C° 0 mm 0 m/s 741 mmHg 37%
    16:00 +29°C° 0 mm 0 m/s 742 mmHg 44%
    17:00 +27°C° 0 mm 0 m/s 742 mmHg 50%
    18:00 +26°C° 0 mm 1 m/s 742 mmHg 57%
    19:00 +26°C° 0 mm 1 m/s 743 mmHg 59%
    20:00 +25°C° 0 mm 1 m/s 743 mmHg 61%
    21:00 +25°C° 0 mm 1 m/s 744 mmHg 63%
    22:00 +24°C° 0,1 mm 1 m/s 744 mmHg 63%
    23:00 +24°C° 0,1 mm 1 m/s 744 mmHg 64%
    Mostrar mais